Hourly Data Report for September 02, 2017

All times are specified in Local Standard Time (LST). Add 1 hour to adjust for Daylight Saving Time where and when it is observed.

WOODSTOCK NEWBRIDGE
NEW BRUNSWICK

46°09'08.000" N
67°32'34.000" W
154.00 m
8105603
71606
EWD

Download Data

Hourly Data (September 2017)
Hourly Data Report for September 2, 2017
Temp Definition
°C
Dew Point Temp Definition
°C
Rel Hum Definition
%
Wind Dir Definition
10's deg

Wind Spd Definition
km/h
Visibility Definition
km
Stn Press Definition
kPa
Hmdx Definition


Wind Chill Definition


Weather Definition


TIME
00:00 9.0 5.2 77 28 11   99.76     LegendNANA
01:00 9.0 6.0 82 31 10   99.77     LegendNANA
02:00 9.0 5.4 78 29 12   99.81     LegendNANA
03:00 8.2 5.3 82 31 9   99.82     LegendNANA
04:00 8.6 5.6 82 27 10   99.88     LegendNANA
05:00 8.8 5.6 80 30 8   99.94     LegendNANA
06:00 8.8 5.4 79 30 10   100.04     LegendNANA
07:00 9.3 4.7 73 29 10   100.09     LegendNANA
08:00 10.2 4.9 70 31 10   100.14     LegendNANA
09:00 10.8 4.6 66 30 14   100.21     LegendNANA
10:00 12.4 5.1 61 31 11   100.23     LegendNANA
11:00 14.0 5.8 58 31 12   100.23     LegendNANA
12:00 15.8 6.0 52 32 15   100.22     LegendNANA
13:00 17.4 6.5 49 31 12   100.22     LegendNANA
14:00 18.5 6.5 45 29 11   100.22     LegendNANA
15:00 19.0 6.5 44 31 12   100.23     LegendNANA
16:00 19.6 6.7 43 30 9   100.22     LegendNANA
17:00 19.5 7.1 45 32 7   100.26     LegendNANA
18:00 18.7 7.2 47 34 5   100.29     LegendNANA
19:00 14.6 7.8 64 35 1   100.32     LegendNANA
20:00 10.8 7.8 81   0   100.39     LegendNANA
21:00 8.8 6.7 87   0   100.46     LegendNANA
22:00 7.4 6.1 91   0   100.49     LegendNANA
23:00 6.4 5.3 93   0   100.50     LegendNANA

Notes on Data Quality.

Legend

  • E = Estimated
  • M = Missing
  • NA = Not Available
  • ‡ = Partner data that is not subject to review by the National Climate Archives
Date modified: